Regional Weather Roundup
Issued by NWS

Home | Current Version | Previous Version | Text Only | Print | Product List | Glossary Off
Versions: 1 2 3 4 5 6 7 8 9 10 11 12 13 14 15 16 17 18 19 20 21 22 23 24 25 26 27 28 29 30 31 32 33 34 35 36 37 38 39 40 41 42 43 44 45 46 47 48 49 50

397
ASUS43 KOAX 080010
RWRNE

WEATHER ROUNDUP FOR NEBRASKA
NATIONAL WEATHER SERVICE OMAHA NE
600 PM CST WED DEC 07 2016

NOTES: SATELLITE DATA IS BEING USED TO AUGMENT CLOUD COVER ABOVE
       12000 FEET.
       "FAIR" INDICATES FEW OR NO CLOUDS BELOW 12,000 FEET WITH NO
       SIGNIFICANT WEATHER AND/OR OBSTRUCTIONS TO VISIBILITY.

  * THESE STATIONS DO NOT REPORT WEATHER SUCH AS RAIN...SNOW OR FOG.

NEZ001>004-019>022-054>056-080100-
NEBRASKA PANHANDLE

CITY           SKY/WX    TMP DP  RH WIND       PRES   REMARKS
SCOTTSBLUFF    CLEAR      7  -3  64 NW10      30.38R WCI  -8
6HR MIN TEMP:   7; 6HR MAX TEMP:  15;

ALLIANCE       CLEAR      8  -2  63 NW10      30.35R WCI  -6
6HR MIN TEMP:   8; 6HR MAX TEMP:  16;

CHADRON        CLEAR      8  -5  55 W16       30.42R WCI -10
6HR MIN TEMP:   8; 6HR MAX TEMP:  14;

KIMBALL        CLEAR      4  -2  76 NW5       30.30R WCI  -6
SIDNEY         CLEAR      5  -3  69 NW9       30.34R WCI  -9
6HR MIN TEMP:   4; 6HR MAX TEMP:  13; 6HR PCP: TRACE;

$$

NEZ057>060-069>072-079>082-080100-
SOUTHWEST NEBRASKA

CITY           SKY/WX    TMP DP  RH WIND       PRES   REMARKS
NORTH PLATTE   CLEAR     13   5  70 NW8       30.39R WCI   2
6HR MIN TEMP:  13; 6HR MAX TEMP:  22; 6HR PCP: TRACE;

IMPERIAL       CLEAR     10   3  73 NW6       30.39R WCI   0
6HR MIN TEMP:  10; 6HR MAX TEMP:  17; 6HR PCP: TRACE;

LEXINGTON      CLEAR     15   3  60 NW8       30.39R WCI   4
MCCOOK         CLOUDY    17  10  74 NW8       30.42R WCI   7
6HR MIN TEMP:  16; 6HR MAX TEMP:  19; 6HR PCP: TRACE;

OGALLALA       CLEAR     10   3  73 NW7       30.38R WCI   0
$$

NEZ005>010-023>029-035>040-094-080100-
NORTH CENTRAL NEBRASKA

CITY           SKY/WX    TMP DP  RH WIND       PRES   REMARKS
VALENTINE      CLEAR     10  -1  61 NW13      30.40R WCI  -5
6HR MIN TEMP:  10; 6HR MAX TEMP:  17;

AINSWORTH      CLEAR     12   2  65 NW12      30.38R WCI  -2
BROKEN BOW     CLEAR     17   2  51 NW15      30.37R WCI   2
6HR MIN TEMP:  16; 6HR MAX TEMP:  21;

O`NEILL        CLEAR     14   3  61 NW16G23   30.38R WCI  -2
ORD            CLEAR     16   0  49 NW14      30.38R WCI   2
6HR MIN TEMP:  16; 6HR MAX TEMP:  22;

THEDFORD       CLEAR     13   1  58 NW8       30.39R WCI   1
$$

NEZ041-046>049-061>064-073>077-083>087-080100-
SOUTH CENTRAL NEBRASKA

CITY           SKY/WX    TMP DP  RH WIND       PRES   REMARKS
GRAND ISLAND   CLEAR     18   3  52 NW10      30.40R WCI   6
6HR MIN TEMP:  18; 6HR MAX TEMP:  23;

AURORA         CLEAR     18   4  55 NW9       30.39R WCI   6
HASTINGS       CLEAR     19   3  49 NW10      30.40R WCI   7
6HR MIN TEMP:  19; 6HR MAX TEMP:  24;

HEBRON         PTCLDY    20   6  54 NW5       30.41R WCI  14
HOLDREGE       PTCLDY    16   5  62 NW8       30.39R WCI   6
KEARNEY *      CLEAR     18   0  45 NW8       30.40R WCI   7
YORK           PTCLDY    19   5  53 NW12      30.39R WCI   7
$$

NEZ011>018-030>034-042>045-080100-
NORTHEAST NEBRASKA

CITY           SKY/WX    TMP DP  RH WIND       PRES   REMARKS
NORFOLK        CLEAR     16   2  54 NW17G25   30.36R WCI   0
6HR MIN TEMP:  16; 6HR MAX TEMP:  21;

ALBION         CLEAR     17   3  55 NW10G16   30.38R WCI   4
BLAIR          CLEAR     21   8  57 W10       30.35R WCI  10
FREMONT        CLEAR     19   8  62 W13       30.38R WCI   5
TEKAMAH        CLEAR     19   7  59 NW13      30.37R WCI   6
6HR MIN TEMP:  19; 6HR MAX TEMP:  25;

WAYNE          CLEAR     17   5  59 NW15      30.36R WCI   2
$$

NEZ050>053-065>068-078-088>093-080100-
SOUTHEAST NEBRASKA

CITY           SKY/WX    TMP DP  RH WIND       PRES   REMARKS
LINCOLN        CLEAR     22   6  50 NW8       30.41R WCI  12
6HR MIN TEMP:  22; 6HR MAX TEMP:  27;

OMAHA EPPLEY   PTCLDY    22   7  52 NW13      30.37R WCI  10
6HR MIN TEMP:  21; 6HR MAX TEMP:  26;

BEATRICE       CLEAR     18   8  66 NW6       30.40R WCI   9
FALLS CITY     CLEAR     21  10  62 NW8       30.39R WCI  11
6HR MIN TEMP:  21; 6HR MAX TEMP:  27;

NEBRASKA CITY  PTCLDY    20   6  53 NW7       30.38R WCI  11
PLATTSMOUTH    CLEAR     20   4  51 W7        30.36R WCI  11
$$

NEZ044-045-051>053-067-080100-
OMAHA AREA

CITY           SKY/WX    TMP DP  RH WIND       PRES   REMARKS
OMAHA EPPLEY   PTCLDY    22   7  52 NW13      30.37R WCI  10
6HR MIN TEMP:  21; 6HR MAX TEMP:  26;

BLAIR          CLEAR     21   8  57 W10       30.35R WCI  10
FREMONT        CLEAR     19   8  62 W13       30.38R WCI   5
MILLARD        CLEAR     23   8  52 NW9       30.38R WCI  13
OFFUTT AFB     CLEAR     21   7  54 W7        30.37R WCI  13
PLATTSMOUTH    CLEAR     20   4  51 W7        30.36R WCI  11
WAHOO          FAIR      21   7  55 W13       30.38R WCI   8
$$




USA.gov is the U.S. government's official web portal to all federal, state and local government web resources and services.